www.pogodaiklimat.ru

Погода и климат >> Архив погоды >> Россия >> Забайкальский край >> Чара


АРХИВ ПОГОДЫ в Чаре

Время (UTC), дата Ветер
(напр.,м/с)
 
Видим.   Явления Облачность Т
(С)
Тd
(С)
f
(%)
Тe
(С)
Тes
(С)
Комфортность P
(гПа)
Po
(гПа)
Тmin
(С)
Tmax
(С)
R
(мм)
R24
(мм)
S
(см)
06 12.02 штиль 0 50 км 9/3 1500 м
[Cb cap Ac lent Ci fib]
-21.2 -28.6 51 -21 -20 1037.9 943.4
09 12.02 штиль 0 50 км 8/3 1500 м
[Cb cap Ac lent Ci fib]
-24.8 -31.0 56 -25 -25 1038.9 943.0
12 12.02 штиль 0 50 км 8/0
[Ac lent Ci sp]
-31.7 -35.8 67 -32 -32 опасность
обморожения
1041.7 943.0 -19.7
15 12.02 В 1 50 км 9/0
[Ac lent Ci sp]
-34.8 -39.1 65 -39 -39 опасность
обморожения
1041.9 942.0
18 12.02 В 1 50 км 4/0
[Ac lent Ci fib]
-36.5 -41.0 63 -41 -41 опасность
обморожения
1042.2 941.5
21 12.02 С 1 50 км 10/0
[Ac lent Cs]
-32.5 -36.7 66 -37 -37 опасность
обморожения
1039.6 940.7
00 13.02 СВ 1 50 км 10/0
[Ac As Ci fib]
-29.4 -33.2 69 -33 -33 опасность
обморожения
1037.2 939.8 -37.1 13
03 13.02 З 1 50 км 10/0
[Ac As Ci fib]
-20.0 -26.6 56 -23 -22 1031.6 938.1
06 13.02 ЮЗ 5
{12}
50 км 9/0
[Ac As Ci fib]
-13.7 -27.1 31 -22 -22 1027.9 936.9
09 13.02 ЮЗ 3 50 км 9/0
[Ac lent Ci fib]
-14.9 -28.0 32 -21 -21 1028.0 936.6
12 13.02 З 1 50 км 10/0
[Ac As Ci fib]
-26.1 -31.8 59 -30 -30 1033.1 937.3 -13.4
15 13.02 З 2 50 км 10/0
[Ac As]
-21.5 -29.4 49 -28 -28 1030.8 936.9
18 13.02 ЮЗ 1 50 км 4/0
[Ac lent Ci fib]
-25.9 -31.5 59 -30 -30 1032.3 936.7
21 13.02 штиль 0 50 км 10/0
[Ac As Ci fib]
-26.1 -31.5 60 -26 -26 1031.6 935.9
00 14.02 З 2 50 км 10/0
[Ac lent Cs]
-29.3 -33.6 66 -37 -37 опасность
обморожения
1033.3 936.3 -32.0 13
03 14.02 З 3 50 км 9/0
[Ac lent Ci fib]
-16.2 -26.2 42 -23 -22 1028.0 936.1
06 14.02 З 4 50 км 10/0
[Ac lent Cs]
-12.2 -23.8 37 -19 -19 1025.6 935.2
09 14.02 СЗ 3 50 км 9/3 1500 м
[Sc Ac lent Ci fib]
-14.5 -24.6 42 -21 -21 1026.6 935.5
12 14.02 З 3 50 км 8/0
[Ac lent Ci fib]
-17.5 -25.3 51 -25 -25 1028.2 935.9 -12.1
15 14.02 З 3 50 км 4/0
[Ac lent Ci fib]
-22.5 -28.0 61 -31 -31 опасность
обморожения
1030.5 936.2
18 14.02 З 2 50 км 4/0
[Ci fib]
-24.4 -28.2 71 -31 -31 опасность
обморожения
1031.6 936.6
21 14.02 ЮЗ 2 50 км 8/0
[Ac lent Ci fib]
-28.2 -31.6 73 -35 -35 опасность
обморожения
1033.4 936.8
00 15.02 З 1 50 км 9/0
[Ac trans Ci fib]
-23.5 -26.9 74 -27 -27 1031.9 937.1 -29.4 13
03 15.02 СЗ 2 50 км 9/3 1500 м
[Cb cap Ac trans Ci fib]
-14.0 -21.3 54 -19 -18 1027.6 936.6
06 15.02 З 3 50 км 9/4 1500 м
[Cb cap Ac trans Ci fib]
-11.5 -19.5 52 -17 -17 1024.6 934.7
09 15.02 ЮЗ 5 50 км 10/4 1500 м
[Cb cap Ac lent Ci fib]
-11.4 -19.3 52 -19 -19 1024.0 934.1
12 15.02 Ю 2 50 км 8/4 1500 м
[Cb cap Ac lent Ci fib]
-11.5 -18.9 54 -16 -16 1023.0 933.2 -10.7
15 15.02 З 2 50 км 6/0
[Ac lent Ci fib]
-18.5 -22.6 70 -24 -24 1024.2 931.9
18 15.02 З 1 50 км 6/0
[Ac lent Ci fib]
-20.0 -23.7 72 -23 -23 1024.0 931.2
21 15.02 З 2 50 км 4/0
[Ac lent]
-19.9 -23.3 74 -26 -26 1023.2 930.5
00 16.02 З 1 50 км 10/8 1500 м
[Cb cap Ac trans Ci fib]
-12.6 -17.8 65 -15 -15 1019.5 929.6 -20.9 13
03 16.02 ЮЗ 4 50 км 9/4 1500 м
[Cb cap Ci fib]
-6.9 -15.5 50 -13 -12 1016.5 928.7
06 16.02 ЮЗ 7-11
{12}
50 км 9/4 1500 м
[Cb cap Ac lent Ci fib]
-6.0 -14.6 51 -14 -14 1014.7 927.4
09 16.02 Ю 4
{11}
50 км 8/3 1500 м
[Sc Ac lent Ci fib]
-7.6 -15.9 51 -14 -14 1014.6 926.7
12 16.02 З 1 50 км 10/8 1500 м
[Cb cap Ac trans Ci fib]
-12.6 -17.8 65 -15 -15 1019.5 929.6 -20.9
15 16.02 СЗ 1 50 км 8/0
[Ac lent Ci fib]
-17.2 -21.5 69 -20 -20 1018.5 927.2
18 16.02 Ю 4 50 км 8/3 1500 м
[Cu med, cong Ci fib]
-9.3 -16.7 55 -16 -16 1015.4 927.0
21 16.02 Ю 2 50 км 9/3 1500 м
[Cb cap Ac lent Ci fib]
-9.4 -17.7 51 -14 -14 1015.5 927.0
00 17.02 З 2 50 км 9/3 1500 м
[Cb cap Ac lent Ci fib]
-18.4 -21.7 75 -24 -24 1019.2 927.6 -20.8 13
03 17.02 ЮЗ 2 50 км 8/3 1500 м
[Cu hum Ac lent Ci fib]
-6.1 -16.4 44 -10 -9 1014.5 927.1
06 17.02 ЮЗ 4 50 км 9/1 1500 м
[Cu hum Ac lent Ci sp]
-5.1 -15.0 46 -11 -10 1012.4 925.5
09 17.02 Ю 2 50 км 10/1 1500 м
[Cu hum Ac trans Ci sp]
-6.6 -15.2 50 -10 -10 1011.5 924.2
12 17.02 З 2
{11}
50 км 8/3 1500 м
[Sc Ac lent Ci fib]
-11.1 -16.1 67 -16 -16 1012.2 923.4 -5.0
15 17.02 З 1 50 км 10/3 1500 м
[Cb cap Cs]
-16.5 -19.4 78 -19 -19 1012.7 922.1
18 17.02 З 1 50 км 10/3 1500 м
[Cb cap Cs]
-19.8 -22.6 78 -23 -23 1013.7 921.9
21 17.02 З 3-19
{19}
50 км 9/4 1500 м
[Cb cap Ci fib]
-18.0 -20.3 82 -25 -25 1013.3 922.2
00 18.02 С 2 50 км 6/4 1500 м
[Cb cap Ci fib]
-19.1 -21.6 81 -25 -25 1015.2 923.5 -20.4 13
03 18.02 ЮЗ 3 50 км 8/5 1500 м
[Cb cap Ci fib]
-6.5 -14.1 55 -12 -11 1012.0 924.7
06 18.02 ЮЗ 2 50 км 6/6 1500 м
[Cb cap]
-3.6 -14.4 43 -7 -6 1011.8 925.3
09 18.02 В 1 50 км 8/3 1500 м
[Sc Ci fib]
-6.4 -20.6 31 -8 -8 1014.2 926.8
12 18.02 штиль 0 50 км 3/0
[Ci fib]
-16.9 -22.3 63 -17 -17 1019.9 928.5 -3.0
15 18.02 ЮЗ 1 50 км 3/0
[Ci fib]
-25.2 -28.5 74 -29 -29 1024.0 929.3
18 18.02 Ю 1 50 км 4/0
[Ci fib]
-27.8 -31.3 72 -32 -32 опасность
обморожения
1025.5 929.8
21 18.02 ЮЗ 1 50 км 6/0
[Ci fib]
-29.1 -32.6 72 -33 -33 опасность
обморожения
1025.7 929.5
00 19.02 С 1 50 км 10/0
[Ac lent Cs]
-27.4 -31.0 71 -31 -31 опасность
обморожения
1024.7 929.2 -29.4 13
03 19.02 штиль 0 50 км 10/0
[Ac lent Cs]
-17.2 -22.1 66 -17 -15 1019.6 928.1

 

Местоположение метеостанции Чара (Забайкальский край, Россия): широта 56.90 долгота 118.20 высота над уровнем моря 711 м.

В архиве по умолчанию представлена погода в Чаре за последнюю неделю. Архивные данные за месяц целиком и за предыдущие месяцы, начиная с января 2011 года, Вы можете получить, выбрав интересующий диапазон дат из раскрывающегося списка и нажав кнопку "Ввод!".


*Определитесь, кто Вы:
робот инопланетянин человек

Внимание! Время в таблицах - всемирное. Для получения местного времени необходимо прибавить поправку, которая равна 9 ч.

Смотрите также архив погоды в соседних городах и на ближайших метеорологических станциях:

Погода в Удокане (Забайкальский край, Россия) (18 км)
Погода в Большой Лепринде (Забайкальский край, Россия) (46 км)
Погода в Усть-Нюкже (Амурская область, Россия) (204 км)
Погода в Таксимо (Бурятия, Россия) (216 км)
Погода в Средней Олекме (Забайкальский край, Россия) (217 км)
Погода в Перевозе (Иркутская область, Россия) (246 км)
Погода в Тяне (Якутия, Россия) (252 км)
Погода в Мамакане (Иркутская область, Россия) (272 км)
Погода в Усть-Каренге (Забайкальский край, Россия) (295 км)
Погода в Тупике (Забайкальский край, Россия) (295 км)

Пояснения к столбцам:

Ветер - указаны скорость ветра в м/с - средняя за 10 мин, порывы в срок и между сроками (в фигурных скобках) и направление, откуда дует ветер: С - северный, СВ - северо-восточный, В - восточный, ЮВ - юго-восточный, Ю - южный, ЮЗ - юго-западный, З - западный, СЗ - северо-западный.
Видимость - горизонтальная дальность видимости в метрах или километрах. При видимости от 1 до 10 км при отсутствии осадков обычно наблюдается дымка, при ухудшении видимости до 1 км и менее - туман. В сухую погоду видимость может ухудшаться дымом, пылью или мглою.
Явления - указаны атмосферные явления, наблюдавшиеся в срок или в последний час перед сроком; фигурными скобками обозначены явления, наблюдавшиеся между сроками (за 1-3 часа до срока); квадратными скобками обозначены град или гололедные отложения с указанием их диаметра в мм.
Облачность - указаны через наклонную черту общая и нижняя облачность в баллах и высота нижней границы облаков в метрах; квадратными скобками обозначены формы облаков: Ci - перистые, Cs - перисто-слоистые, Cc - перисто-кучевые, Ac - высококучевые, As - высокослоистые, Sc - слоисто-кучевые, Ns - слоисто-дождевые, Cu - кучевые, Cb - кучево-дождевые. Подробнее классификацию облаков см. в Атласе облаков (PDF).
T - Температура воздуха - температура, измеренная на высоте 2 м над землей.
Td - Температура точки росы - температура, при понижении до которой содержащийся в воздухе водяной пар достигнет насыщения.
f - Относительная влажность воздуха - влажноcть воздуха, измеренная на высоте 2 м над землей.
Te - Эффективная температура - температура, которую ощущает одетый по сезону человек в тени. Характеристика душности погоды. При расчете учитывается влияние влажности воздуха и скорости ветра на теплоощущения человека.
Tes - Эффективная температура на солнце - температура, которую ощущает человек, с поправкой на солнечный нагрев. Характеристика знойности погоды. Зависит от высоты солнца над горизонтом, облачности и скорости ветра. Ночью, в пасмурную погоду, а также при ветре 12 м/с и более поправка равна нулю.
P - Атмосферное давление - приведенное к уровню моря атмосферное давление.
Po - Атмосферное давление - измеренное на уровне метеостанции атмосферное давление.
Tmin - Минимальная температура - минимум температуры воздуха на высоте 2 м над землей.
Tmax - Максимальная температура - максимум температуры воздуха на высоте 2 м над землей.
R - Количество осадков - Количество выпавших осадков за период времени, мм. При наведении курсора мыши на число - период времени, за который выпало указанное количество осадков.
R24 - Количество осадков - Количество выпавших осадков за 24 часа, мм.
S - Снежный покров - Высота снежного покрова, см. При наведении курсора мыши на число - состояние снежного покрова и степень покрытия местности в баллах.